Weather in Ivanovo

Russia / Tver Oblast     58°32′48″N   37°04′59″E
temp.,
°C
wind,
m/s
gust,
m/s
humid.,
%
clouds,
%
prec.,
mm/h
press.,
hPa
HPBL,
m
21 april, wed
wed2100:00+4e41168100 0.0 1017484
03:00+1e41196100 0.5 1014457
06:000ene51398100 3.7 1009541
09:00+1e51297100 6.6 1006578
12:00+2e3899100 0.8 1004313
15:00+2sw2399100 1.6 1003194
18:00+2sw4894100 0.1 1004802
21:00+2ssw3995100 0.2 1006599
22 april, thu
thu2200:00+3ssw499698 0.0 1007479
03:00+3s4119498 0.1 1008365
06:00+2s4129655 0.0 1009351
09:00+6s51287100 0.0 1009469
12:00+9ssw697689 0.0 1010993
15:00+10ssw5871100 0.1 10111065
18:00+10ssw497317 0.1 1011704
21:00+7s5138910 0.1 1012448
23 april, fri
fri2300:00+7sse414867 0.0 1011451
03:00+6sse5139395 0.0 1010431
06:00+6sse5139597 0.0 1010462
09:00+8s4109099 0.0 1011713
12:00+9s4986100 0.1 1011902
15:00+6w5990100 0.7 1012433
18:00+7ssw2685100 0.8 1012561
21:00+5sse2695100 1.3 1013184
24 april, sat
sat2400:00+5se2496100 0.1 1012111
03:00+4nnw1197100 3.3 101079
06:00+6se4139099 0.0 1007488
09:00+9se61384100 0.1 1005926
12:00+10sse7157999 0.5 10041499
15:00+6wsw4591100 1.1 1004292
18:00+4sw1292100 5.7 1005394
21:00+3wnw2597100 7.1 1004441
25 april, sun
sun2500:00+2w3899100 1.6 1004513
03:00+2w4997100 3.4 1003454
06:00+2wsw4997100 1.7 1003428
09:00+2wsw41097100 3.0 1003481
12:00+3wsw51194100 0.9 1004813
15:00+5w5983100 1.5 10051024
18:00+4w3888100 0.2 1006675
21:00+2sw2694100 0.2 1006155